Time,TemperatureF,DewpointF,PressureIn,WindDirection,WindDirectionDegrees,WindSpeedMPH,WindSpeedGustMPH,Humidity,HourlyPrecipIn,Conditions,Clouds,dailyrainin,SolarRadiationWatts/m^2,SoftwareType,DateUTC
2013-01-18 00:05:00,36.5,35.0,30.19,SSE,147,0.0,0.0,94,0.00,,,0.00,0,weatherlink.com 1.10,2013-01-18 08:05:00,
2013-01-18 00:20:00,37.1,36.0,30.19,SSE,147,0.0,0.0,94,0.00,,,0.00,0,weatherlink.com 1.10,2013-01-18 08:20:00,
2013-01-18 00:35:00,35.7,34.0,30.19,SSE,147,0.0,0.0,94,0.00,,,0.00,0,weatherlink.com 1.10,2013-01-18 08:35:00,
2013-01-18 00:50:00,35.6,34.0,30.19,SSE,147,0.0,0.0,94,0.00,,,0.00,0,weatherlink.com 1.10,2013-01-18 08:50:00,
2013-01-18 01:06:00,36.2,35.0,30.18,SSE,147,0.0,0.0,94,0.00,,,0.00,0,weatherlink.com 1.10,2013-01-18 09:06:00,
2013-01-18 01:21:00,35.5,34.0,30.19,SSE,147,0.0,0.0,94,0.00,,,0.00,0,weatherlink.com 1.10,2013-01-18 09:21:00,
2013-01-18 01:51:00,35.0,34.0,30.19,SSE,147,0.0,0.0,94,0.00,,,0.00,0,weatherlink.com 1.10,2013-01-18 09:51:00,
2013-01-18 02:06:00,34.1,33.0,30.20,SSE,147,0.0,0.0,94,0.00,,,0.00,0,weatherlink.com 1.10,2013-01-18 10:06:00,
2013-01-18 02:21:00,34.5,33.0,30.19,SSE,147,0.0,0.0,94,0.00,,,0.00,0,weatherlink.com 1.10,2013-01-18 10:21:00,
2013-01-18 02:36:00,33.9,32.0,30.20,SSE,147,0.0,0.0,94,0.00,,,0.00,0,weatherlink.com 1.10,2013-01-18 10:36:00,
2013-01-18 02:51:00,34.8,34.0,30.19,SSE,147,0.0,0.0,95,0.00,,,0.00,0,weatherlink.com 1.10,2013-01-18 10:51:00,
2013-01-18 03:06:00,34.4,33.0,30.19,SSE,147,0.0,0.0,94,0.00,,,0.00,0,weatherlink.com 1.10,2013-01-18 11:06:00,
2013-01-18 03:21:00,35.2,34.0,30.19,SSE,147,0.0,0.0,94,0.00,,,0.00,0,weatherlink.com 1.10,2013-01-18 11:21:00,
2013-01-18 03:36:00,33.5,32.0,30.19,SSE,147,0.0,0.0,94,0.00,,,0.00,0,weatherlink.com 1.10,2013-01-18 11:36:00,
2013-01-18 03:51:00,33.9,33.0,30.19,SSE,147,0.0,0.0,95,0.00,,,0.00,0,weatherlink.com 1.10,2013-01-18 11:51:00,
2013-01-18 04:06:00,33.4,32.0,30.19,SSE,147,0.0,0.0,95,0.00,,,0.00,0,weatherlink.com 1.10,2013-01-18 12:06:00,
2013-01-18 04:21:00,33.8,33.0,30.18,SSE,147,0.0,0.0,95,0.00,,,0.00,0,weatherlink.com 1.10,2013-01-18 12:21:00,
2013-01-18 04:36:00,34.1,33.0,30.18,SSE,147,0.0,0.0,95,0.00,,,0.00,0,weatherlink.com 1.10,2013-01-18 12:36:00,
2013-01-18 04:51:00,32.9,31.0,30.18,SSE,147,0.0,0.0,94,0.00,,,0.00,0,weatherlink.com 1.10,2013-01-18 12:51:00,
2013-01-18 05:06:00,33.9,33.0,30.18,SSE,147,0.0,1.0,95,0.00,,,0.00,0,weatherlink.com 1.10,2013-01-18 13:06:00,
2013-01-18 05:21:00,33.3,32.0,30.18,SSE,147,0.0,0.0,95,0.00,,,0.00,0,weatherlink.com 1.10,2013-01-18 13:21:00,
2013-01-18 05:36:00,32.0,31.0,30.18,SSE,148,0.0,0.0,95,0.00,,,0.00,0,weatherlink.com 1.10,2013-01-18 13:36:00,
2013-01-18 05:51:00,31.4,30.0,30.18,SSE,147,0.0,0.0,95,0.00,,,0.00,0,weatherlink.com 1.10,2013-01-18 13:51:00,
2013-01-18 06:06:00,31.6,30.0,30.18,SSE,147,0.0,0.0,95,0.00,,,0.00,0,weatherlink.com 1.10,2013-01-18 14:06:00,
2013-01-18 06:21:00,32.0,31.0,30.19,SSE,147,0.0,0.0,95,0.00,,,0.00,0,weatherlink.com 1.10,2013-01-18 14:21:00,
2013-01-18 06:36:00,31.5,30.0,30.19,SSE,147,0.0,0.0,95,0.00,,,0.00,0,weatherlink.com 1.10,2013-01-18 14:36:00,
2013-01-18 06:51:00,30.6,29.0,30.19,SSE,147,0.0,0.0,94,0.00,,,0.00,0,weatherlink.com 1.10,2013-01-18 14:51:00,
2013-01-18 07:06:00,29.9,28.0,30.20,SSE,147,0.0,0.0,94,0.00,,,0.00,0,weatherlink.com 1.10,2013-01-18 15:06:00,
2013-01-18 07:21:00,30.1,29.0,30.20,SSE,147,0.0,0.0,95,0.00,,,0.00,0,weatherlink.com 1.10,2013-01-18 15:21:00,
2013-01-18 07:36:00,30.5,29.0,30.21,SSE,148,0.0,0.0,95,0.00,,,0.00,7,weatherlink.com 1.10,2013-01-18 15:36:00,
2013-01-18 07:51:00,30.7,30.0,30.21,SSE,147,0.0,0.0,95,0.00,,,0.00,12,weatherlink.com 1.10,2013-01-18 15:51:00,
2013-01-18 08:06:00,30.6,29.0,30.21,SSE,147,0.0,0.0,95,0.00,,,0.00,16,weatherlink.com 1.10,2013-01-18 16:06:00,
2013-01-18 08:21:00,30.9,30.0,30.22,SSE,147,0.0,0.0,95,0.00,,,0.00,19,weatherlink.com 1.10,2013-01-18 16:21:00,
2013-01-18 08:36:00,32.0,31.0,30.22,SSE,147,0.0,0.0,95,0.00,,,0.00,21,weatherlink.com 1.10,2013-01-18 16:36:00,
2013-01-18 08:51:00,32.9,32.0,30.23,SSE,147,0.0,0.0,95,0.00,,,0.00,23,weatherlink.com 1.10,2013-01-18 16:51:00,
2013-01-18 09:06:00,33.4,32.0,30.23,SSE,147,0.0,0.0,95,0.00,,,0.00,25,weatherlink.com 1.10,2013-01-18 17:06:00,
2013-01-18 09:21:00,34.5,33.0,30.23,SSE,147,0.0,0.0,95,0.00,,,0.00,25,weatherlink.com 1.10,2013-01-18 17:21:00,
2013-01-18 09:51:00,37.9,37.0,30.24,SSE,147,0.0,0.0,95,0.00,,,0.00,367,weatherlink.com 1.10,2013-01-18 17:51:00,
2013-01-18 10:07:00,40.3,39.0,30.24,SSE,148,0.0,0.0,96,0.01,,,0.01,399,weatherlink.com 1.10,2013-01-18 18:07:00,
2013-01-18 10:22:00,41.5,39.0,30.24,SSE,148,0.0,0.0,92,0.01,,,0.01,431,weatherlink.com 1.10,2013-01-18 18:22:00,
2013-01-18 10:37:00,43.5,41.0,30.23,SSE,148,0.0,0.0,90,0.01,,,0.01,473,weatherlink.com 1.10,2013-01-18 18:37:00,
2013-01-18 10:52:00,45.7,42.0,30.23,SSE,148,0.0,0.0,86,0.01,,,0.01,504,weatherlink.com 1.10,2013-01-18 18:52:00,
2013-01-18 11:07:00,47.6,42.0,30.22,SSE,148,0.0,0.0,80,0.00,,,0.01,522,weatherlink.com 1.10,2013-01-18 19:07:00,
2013-01-18 11:22:00,48.7,40.0,30.22,SSE,148,0.0,1.0,72,0.00,,,0.01,545,weatherlink.com 1.10,2013-01-18 19:22:00,
2013-01-18 11:37:00,50.5,39.0,30.21,SSE,148,0.0,1.0,66,0.00,,,0.01,557,weatherlink.com 1.10,2013-01-18 19:37:00,
2013-01-18 11:52:00,51.7,41.0,30.20,SSE,148,0.0,1.0,68,0.00,,,0.01,571,weatherlink.com 1.10,2013-01-18 19:52:00,
2013-01-18 12:07:00,53.0,41.0,30.19,ESE,115,0.0,1.0,65,0.00,,,0.01,578,weatherlink.com 1.10,2013-01-18 20:07:00,
2013-01-18 12:22:00,54.5,42.0,30.18,ESE,115,0.0,1.0,62,0.00,,,0.01,580,weatherlink.com 1.10,2013-01-18 20:22:00,
2013-01-18 12:37:00,55.8,42.0,30.17,East,101,2.0,2.0,60,0.00,,,0.01,582,weatherlink.com 1.10,2013-01-18 20:37:00,
2013-01-18 12:52:00,57.1,39.0,30.16,East,101,0.0,3.0,52,0.00,,,0.01,577,weatherlink.com 1.10,2013-01-18 20:52:00,
2013-01-18 13:07:00,58.7,40.0,30.16,NE,52,0.0,3.0,51,0.00,,,0.01,571,weatherlink.com 1.10,2013-01-18 21:07:00,
2013-01-18 13:22:00,59.1,40.0,30.16,ENE,62,0.0,3.0,49,0.00,,,0.01,536,weatherlink.com 1.10,2013-01-18 21:22:00,
2013-01-18 13:37:00,59.8,40.0,30.15,NE,40,1.0,3.0,49,0.00,,,0.01,531,weatherlink.com 1.10,2013-01-18 21:37:00,
2013-01-18 13:52:00,60.7,40.0,30.15,ENE,76,0.0,2.0,47,0.00,,,0.01,510,weatherlink.com 1.10,2013-01-18 21:52:00,
2013-01-18 14:07:00,60.5,42.0,30.15,NE,51,2.0,3.0,51,0.00,,,0.01,504,weatherlink.com 1.10,2013-01-18 22:07:00,
2013-01-18 14:22:00,61.5,41.0,30.14,ENE,69,2.0,3.0,48,0.00,,,0.01,478,weatherlink.com 1.10,2013-01-18 22:22:00,
2013-01-18 14:37:00,61.6,41.0,30.14,ENE,70,0.0,3.0,47,0.00,,,0.01,404,weatherlink.com 1.10,2013-01-18 22:37:00,
2013-01-18 14:52:00,61.7,43.0,30.14,NE,37,1.0,3.0,50,0.00,,,0.01,369,weatherlink.com 1.10,2013-01-18 22:52:00,
2013-01-18 15:08:00,61.6,44.0,30.14,NE,43,1.0,2.0,53,0.00,,,0.01,353,weatherlink.com 1.10,2013-01-18 23:08:00,
2013-01-18 15:23:00,61.1,44.0,30.14,NE,43,0.0,2.0,53,0.00,,,0.01,288,weatherlink.com 1.10,2013-01-18 23:23:00,
2013-01-18 15:38:00,60.9,43.0,30.14,NE,43,0.0,1.0,53,0.00,,,0.01,258,weatherlink.com 1.10,2013-01-18 23:38:00,
2013-01-18 15:53:00,60.7,43.0,30.13,NE,43,0.0,1.0,53,0.00,,,0.01,192,weatherlink.com 1.10,2013-01-18 23:53:00,
2013-01-18 16:08:00,61.1,44.0,30.13,SSW,197,0.0,1.0,54,0.00,,,0.01,165,weatherlink.com 1.10,2013-01-19 00:08:00,
2013-01-18 16:23:00,58.9,44.0,30.14,SSW,197,0.0,1.0,58,0.00,,,0.01,88,weatherlink.com 1.10,2013-01-19 00:23:00,
2013-01-18 16:38:00,56.9,45.0,30.14,SSW,197,0.0,0.0,64,0.00,,,0.01,77,weatherlink.com 1.10,2013-01-19 00:38:00,
2013-01-18 16:53:00,55.3,44.0,30.14,SSW,197,0.0,0.0,67,0.00,,,0.01,21,weatherlink.com 1.10,2013-01-19 00:53:00,
2013-01-18 17:08:00,53.0,43.0,30.14,SSW,197,0.0,1.0,70,0.00,,,0.01,11,weatherlink.com 1.10,2013-01-19 01:08:00,
2013-01-18 17:23:00,50.8,43.0,30.14,SSW,197,0.0,0.0,75,0.00,,,0.01,0,weatherlink.com 1.10,2013-01-19 01:23:00,
2013-01-18 17:53:00,48.2,43.0,30.15,SSW,197,0.0,1.0,82,0.00,,,0.01,0,weatherlink.com 1.10,2013-01-19 01:53:00,
2013-01-18 18:08:00,46.6,42.0,30.15,SSW,197,0.0,1.0,84,0.00,,,0.01,0,weatherlink.com 1.10,2013-01-19 02:08:00,
2013-01-18 18:23:00,45.9,42.0,30.15,SSW,197,0.0,1.0,85,0.00,,,0.01,0,weatherlink.com 1.10,2013-01-19 02:23:00,
2013-01-18 18:38:00,45.0,41.0,30.15,SSW,197,0.0,0.0,86,0.00,,,0.01,0,weatherlink.com 1.10,2013-01-19 02:38:00,
2013-01-18 18:53:00,44.6,41.0,30.16,SSW,197,0.0,2.0,86,0.00,,,0.01,0,weatherlink.com 1.10,2013-01-19 02:53:00,
2013-01-18 19:08:00,43.6,39.0,30.16,SSW,197,0.0,0.0,85,0.00,,,0.01,0,weatherlink.com 1.10,2013-01-19 03:08:00,
2013-01-18 19:23:00,43.3,40.0,30.16,SSW,197,0.0,1.0,88,0.00,,,0.01,0,weatherlink.com 1.10,2013-01-19 03:23:00,
2013-01-18 19:38:00,42.9,39.0,30.16,SSW,197,0.0,1.0,87,0.00,,,0.01,0,weatherlink.com 1.10,2013-01-19 03:38:00,
2013-01-18 19:53:00,42.5,39.0,30.16,SSW,197,0.0,1.0,88,0.00,,,0.01,0,weatherlink.com 1.10,2013-01-19 03:53:00,
2013-01-18 20:08:00,41.7,38.0,30.16,SSW,197,0.0,1.0,87,0.00,,,0.01,0,weatherlink.com 1.10,2013-01-19 04:08:00,
2013-01-18 20:23:00,41.6,38.0,30.16,SSW,197,0.0,1.0,88,0.00,,,0.01,0,weatherlink.com 1.10,2013-01-19 04:23:00,
2013-01-18 20:38:00,41.6,38.0,30.16,SSW,197,0.0,2.0,87,0.00,,,0.01,0,weatherlink.com 1.10,2013-01-19 04:38:00,
2013-01-18 20:53:00,40.7,37.0,30.16,SSW,197,0.0,1.0,86,0.00,,,0.01,0,weatherlink.com 1.10,2013-01-19 04:53:00,
2013-01-18 21:08:00,40.2,37.0,30.17,SSW,197,0.0,0.0,87,0.00,,,0.01,0,weatherlink.com 1.10,2013-01-19 05:08:00,
2013-01-18 21:23:00,40.1,37.0,30.16,SSW,197,0.0,1.0,88,0.00,,,0.01,0,weatherlink.com 1.10,2013-01-19 05:23:00,
2013-01-18 21:38:00,39.7,37.0,30.16,SSW,196,0.0,2.0,89,0.00,,,0.01,0,weatherlink.com 1.10,2013-01-19 05:38:00,
2013-01-18 21:53:00,39.3,36.0,30.17,SSW,196,0.0,0.0,88,0.00,,,0.01,0,weatherlink.com 1.10,2013-01-19 05:53:00,
2013-01-18 22:08:00,38.4,36.0,30.17,SSW,196,0.0,0.0,89,0.00,,,0.01,0,weatherlink.com 1.10,2013-01-19 06:08:00,
2013-01-18 22:23:00,38.0,35.0,30.17,SSW,196,0.0,0.0,90,0.00,,,0.01,0,weatherlink.com 1.10,2013-01-19 06:23:00,
2013-01-18 22:38:00,38.4,36.0,30.17,SSW,196,0.0,0.0,91,0.00,,,0.01,0,weatherlink.com 1.10,2013-01-19 06:38:00,
2013-01-18 22:53:00,37.6,35.0,30.17,SSW,196,0.0,0.0,90,0.00,,,0.01,0,weatherlink.com 1.10,2013-01-19 06:53:00,
2013-01-18 23:08:00,37.7,35.0,30.18,SSW,196,0.0,0.0,91,0.00,,,0.01,0,weatherlink.com 1.10,2013-01-19 07:08:00,
2013-01-18 23:23:00,36.9,34.0,30.17,SSW,196,0.0,0.0,90,0.00,,,0.01,0,weatherlink.com 1.10,2013-01-19 07:23:00,
2013-01-18 23:38:00,36.3,34.0,30.17,SSW,196,0.0,0.0,91,0.00,,,0.01,0,weatherlink.com 1.10,2013-01-19 07:38:00,
2013-01-18 23:53:00,36.2,34.0,30.18,SSW,196,0.0,0.0,91,0.00,,,0.01,0,weatherlink.com 1.10,2013-01-19 07:53:00,